Location: Caltech
(34.1382°N, 118.1253°W)
Time: 07:23:36
(UTC-07:00)

Iridium 94 - Visible Passes

Search period start: 30 October 2014 00:00
Search period end: 08 November 2014 23:00
Orbit: 776 x 779 km, 86.4° (Epoch: 29 October)

Date Brightness Start Highest point End Pass type
(mag) Time Alt. Az. Time Alt. Az. Time Alt. Az.
30 Oct 7.0 05:14:56 10° NNE 05:19:45 37° E 05:24:33 10° SSE visible
31 Oct 8.1 04:42:18 10° NNE 04:46:02 20° E 04:49:44 10° SE visible
31 Oct 6.0 06:22:03 10° NNW 06:26:50 38° W 06:31:36 10° SSW visible
31 Oct 8.4 19:16:41 10° WSW 19:19:55 17° WNW 19:23:11 10° NW visible
01 Nov 5.4 05:48:12 10° N 05:53:25 75° W 05:58:36 10° S visible
01 Nov 7.6 18:41:35 10° SW 18:46:10 31° W 18:50:47 10° NNW visible
02 Nov 6.2 04:14:46 10° N 04:19:53 56° E 04:24:59 10° SSE visible
03 Nov 7.4 03:41:45 10° NNE 03:46:14 29° E 03:50:42 10° SE visible
03 Nov 6.4 05:22:32 10° NNW 05:26:47 26° W 05:31:00 10° SW visible
03 Nov 8.8 18:19:01 10° W 18:20:12 11° WNW 18:21:22 10° WNW visible
04 Nov 8.3 03:09:31 10° NE 03:12:27 15° ENE 03:15:23 10° ESE visible
04 Nov 5.6 04:48:24 10° NNW 04:53:26 50° W 04:58:26 10° SSW visible
04 Nov 8.2 17:42:26 10° SW 17:46:21 21° W 17:50:17 10° NNW visible
05 Nov 5.5 04:14:44 10° N 04:19:58 84° E 04:25:10 10° S visible
06 Nov 6.6 03:41:26 10° NNE 03:46:23 43° E 03:51:18 10° SSE visible
06 Nov 6.8 05:23:20 10° NW 05:26:41 17° W 05:30:01 10° WSW visible
07 Nov 7.7 03:10:52 19° NE 03:12:41 22° E 03:16:42 10° SE visible
07 Nov 6.1 04:51:43 27° NW 04:53:24 33° W 04:58:01 10° SSW visible
07 Nov 8.5 17:43:49 10° WSW 17:46:35 14° WNW 17:49:21 10° NW visible
08 Nov 5.9 04:21:23 46° SSW 04:21:23 46° SSW 04:25:08 10° S visible
